Weather History for KPIT - November, 2013

Change the Weather History Date:

Monday, November 25, 2013

  Actual Average Record
Temperature  
Mean Temperature 26 °F 40 °F  
Max Temperature 37 °F 47 °F 71 °F (1908)
Min Temperature 15 °F 32 °F 7 °F (1950)
Degree Days  
Heating Degree Days 39 26  
Month to date heating degree days 580 528  
Since 1 July heating degree days 986 1029  
Cooling Degree Days 0 0  
Month to date cooling degree days 0 0  
Year to date cooling degree days 831 736  
Moisture  
Dew Point 9 °F    
Average Humidity 50    
Maximum Humidity 73    
Minimum Humidity 26    
Precipitation  
Precipitation 0.01 in 0.11 in 1.89 in (2010)
Month to date precipitation 2.11 2.69  
Year to date precipitation 32.53 34.80  
Snow  
Snow 0.10 in 0.10 in 10.10 in (1950)
Month to date snowfall 4.9 1.5  
Since 1 July snowfall 5.0 1.9  
Snow Depth 0.00 in    
Sea Level Pressure  
Sea Level Pressure 30.39 in    
Wind  
Wind Speed 7 mph (SSW)    
Max Wind Speed 17 mph    
Max Gust Speed 25 mph    
Visibility 10 miles    
Events Snow    
T = Trace of Precipitation, MM = Missing Value Source: NWS Daily Summary

Daily Weather History Graph

Daily Weather History Graph

Search for Another Location

Airport or City:

Trip Planner

Search our weather history database for the weather conditions in past years. The results will help you decide how hot, cold, wet, or windy it might be!

Date:

Astronomy

Nov. 25, 2013 Rise Set
Actual Time 7:18 AM EST 4:56 PM EST
Civil Twilight 6:48 AM EST 5:26 PM EST
Nautical Twilight 6:15 AM EST 6:00 PM EST
Astronomical Twilight 5:42 AM EST 6:32 PM EST
Moon No Moon Rise 12:34 PM EST (11/25)
Length of Visible Light 10h 37m
Length of Day
9h 38m
Waning Gibbous, 51% of the Moon is Illuminated
Nov 25
Waning Gibbous
Nov 25
Last Quarter
Dec 2
New
Dec 9
First Quarter
Dec 17
Full

Hourly Weather History & Observations

Time (EST) Temp. Windchill Dew Point Humidity Pressure Visibility Wind Dir Wind Speed Gust Speed Precip Events Conditions
12:51 AM 16.0 °F 8.8 °F 6.1 °F 65% 30.53 in 10.0 mi WSW 4.6 mph - N/A   Clear
1:51 AM 17.1 °F 8.7 °F 7.0 °F 65% 30.53 in 10.0 mi SW 5.8 mph - N/A   Clear
2:51 AM 17.1 °F 7.6 °F 7.0 °F 65% 30.53 in 10.0 mi SW 6.9 mph - N/A   Clear
3:51 AM 16.0 °F 7.4 °F 7.0 °F 68% 30.54 in 10.0 mi SW 5.8 mph - N/A   Clear
4:51 AM 15.1 °F - 7.0 °F 70% 30.53 in 10.0 mi Calm Calm - N/A   Partly Cloudy
5:51 AM 15.1 °F 7.7 °F 7.0 °F 70% 30.52 in 10.0 mi South 4.6 mph - N/A   Mostly Cloudy
6:51 AM 15.1 °F 9.4 °F 7.0 °F 70% 30.51 in 10.0 mi South 3.5 mph - N/A   Mostly Cloudy
7:51 AM 15.1 °F 9.4 °F 8.1 °F 74% 30.50 in 10.0 mi SSE 3.5 mph - N/A   Mostly Cloudy
8:51 AM 18.0 °F 11.1 °F 9.0 °F 68% 30.50 in 10.0 mi South 4.6 mph - N/A   Mostly Cloudy
9:51 AM 21.0 °F 13.4 °F 7.0 °F 55% 30.48 in 10.0 mi South 5.8 mph - N/A   Mostly Cloudy
10:51 AM 25.0 °F 17.1 °F 10.0 °F 53% 30.45 in 10.0 mi SSE 6.9 mph - N/A   Mostly Cloudy
11:51 AM 27.0 °F 17.3 °F 9.0 °F 47% 30.41 in 10.0 mi South 10.4 mph - N/A   Mostly Cloudy
12:51 PM 28.9 °F 20.4 °F 10.0 °F 45% 30.35 in 10.0 mi SSE 9.2 mph - N/A   Mostly Cloudy
1:51 PM 32.0 °F 25.6 °F 10.9 °F 42% 30.32 in 10.0 mi South 6.9 mph - N/A   Overcast
2:51 PM 34.0 °F 25.5 °F 7.0 °F 32% 30.28 in 10.0 mi South 11.5 mph - N/A   Overcast
3:51 PM 36.0 °F 29.0 °F 3.9 °F 26% 30.28 in 10.0 mi SSW 9.2 mph - N/A   Overcast
4:51 PM 35.1 °F 27.4 °F 3.0 °F 26% 30.29 in 10.0 mi SSW 10.4 mph - N/A   Overcast
5:51 PM 35.1 °F 27.4 °F 7.0 °F 31% 30.29 in 10.0 mi SW 10.4 mph - N/A   Overcast
6:51 PM 35.1 °F 27.9 °F 9.0 °F 34% 30.28 in 10.0 mi SSW 9.2 mph - N/A   Overcast
7:51 PM 35.1 °F 30.1 °F 10.0 °F 35% 30.27 in 10.0 mi SSW 5.8 mph - N/A   Overcast
8:51 PM 35.1 °F 30.1 °F 10.9 °F 37% 30.26 in 10.0 mi SSW 5.8 mph - N/A   Overcast
9:51 PM 36.0 °F 30.3 °F 10.9 °F 36% 30.27 in 10.0 mi SSW 6.9 mph - N/A   Overcast
10:51 PM 37.0 °F 29.8 °F 16.0 °F 42% 30.27 in 10.0 mi WSW 10.4 mph 19.6 mph 0.00 in Snow Light Snow
11:40 PM 33.8 °F 24.3 °F 24.8 °F 70% 30.20 in 6.0 mi SW 13.8 mph 25.3 mph 0.00 in Snow Light Snow
11:51 PM 35.1 °F 27.4 °F 23.0 °F 61% 30.25 in 6.0 mi SW 10.4 mph - 0.00 in Snow Light Snow